Granite Falls, MN

2:42 PM CST on December 06, 2019 (GMT -0600)
Granite Falls

Weather History for KGDB - October, 2019

Change the Weather History Date:

Friday, October 25, 2019

  Actual Average (KMVE) Record (KMVE)
Temperature  
Mean Temperature 44 °F -  
Max Temperature 60 °F 57 °F 82 °F (1989)
Min Temperature 28 °F 33 °F 19 °F (1962)
Degree Days  
Heating Degree Days 21    
Moisture  
Dew Point 31 °F    
Average Humidity 68    
Maximum Humidity 90    
Minimum Humidity 35    
Precipitation  
Precipitation 0.00 in - - ()
Sea Level Pressure  
Sea Level Pressure 30.15 in    
Wind  
Wind Speed 9 mph (South)    
Max Wind Speed 15 mph    
Max Gust Speed 20 mph    
Visibility 8 miles    
Events      
Averages and records for this station are not official NWS values.
T = Trace of Precipitation, MM = Missing Value Source: NWS Daily Summary

Daily Weather History Graph

Daily Weather History Graph

Search for Another Location

Airport or City:

Astronomy

Oct. 25, 2019 Rise Set
Actual Time 7:50 AM CDT 6:21 PM CDT
Civil Twilight 7:20 AM CDT 6:51 PM CDT
Nautical Twilight 6:46 AM CDT 7:25 PM CDT
Astronomical Twilight 6:12 AM CDT 7:59 PM CDT
Moon 4:22 AM CDT (10/25) 5:33 PM CDT (10/25)
Length of Visible Light 11h 30m
Length of Day
10h 30m
Waning Crescent, 9% of the Moon is Illuminated
Oct 25
Waning Crescent
Oct 27
New
Nov 4
First Quarter
Nov 12
Full
Nov 19
Last Quarter

Hourly Weather History & Observations

Time (CDT) Temp. Windchill Dew Point Humidity Pressure Visibility Wind Dir Wind Speed Gust Speed Precip Events Conditions
12:18 AM 30.7 °F 23.3 °F 26.6 °F 85% 30.32 in 10.0 mi South 8.1 mph - N/A   Clear
12:37 AM 29.3 °F 20.8 °F 26.2 °F 88% 30.32 in 10.0 mi South 9.2 mph - N/A   Clear
12:56 AM 29.1 °F 20.6 °F 26.4 °F 90% 30.31 in 7.0 mi South 9.2 mph - N/A   Clear
1:15 AM 29.8 °F 21.5 °F 26.8 °F 88% 30.31 in 5.0 mi South 9.2 mph - N/A   Clear
1:16 AM 29.8 °F 21.5 °F 26.8 °F 88% 30.31 in 5.0 mi South 9.2 mph - N/A   Clear
1:35 AM 30.0 °F 21.7 °F 26.8 °F 88% 30.31 in 7.0 mi South 9.2 mph - N/A   Clear
1:57 AM 29.1 °F 21.3 °F 26.2 °F 89% 30.30 in 5.0 mi SSE 8.1 mph - N/A   Clear
2:15 AM 28.9 °F 21.9 °F 26.1 °F 89% 30.30 in 7.0 mi SSE 6.9 mph - N/A   Clear
2:35 AM 30.4 °F 22.9 °F 27.5 °F 89% 30.30 in 7.0 mi SSE 8.1 mph - N/A   Mostly Cloudy
2:36 AM 30.6 °F 23.8 °F 27.7 °F 89% 30.30 in 7.0 mi SSE 6.9 mph - N/A   Mostly Cloudy
2:55 AM 32.2 °F 25.8 °F 29.1 °F 88% 30.28 in 10.0 mi SSE 6.9 mph - N/A   Overcast
2:56 AM 32.4 °F 26.0 °F 29.3 °F 88% 30.29 in 10.0 mi SSE 6.9 mph - N/A   Overcast
3:19 AM 34.2 °F 29.0 °F 30.2 °F 85% 30.28 in 7.0 mi SSE 5.8 mph - N/A   Overcast
3:36 AM 34.7 °F 29.6 °F 30.7 °F 85% 30.28 in 10.0 mi SSE 5.8 mph - N/A   Overcast
3:56 AM 34.2 °F 28.2 °F 30.2 °F 85% 30.27 in 10.0 mi SSE 6.9 mph - N/A   Mostly Cloudy
4:15 AM 32.7 °F 27.3 °F 29.3 °F 87% 30.26 in 7.0 mi SSE 5.8 mph - N/A   Scattered Clouds
4:16 AM 32.5 °F 27.1 °F 29.3 °F 88% 30.26 in 10.0 mi SSE 5.8 mph - N/A   Scattered Clouds
4:35 AM 32.0 °F 26.4 °F 28.4 °F 87% 30.27 in 10.0 mi SSE 5.8 mph - N/A   Clear
4:40 AM 31.8 °F 26.2 °F 28.4 °F 87% 30.27 in 7.0 mi SSE 5.8 mph - N/A   Clear
4:57 AM 31.1 °F 24.5 °F 28.4 °F 90% 30.27 in 7.0 mi South 6.9 mph - N/A   Clear
5:16 AM 31.1 °F 24.5 °F 28.4 °F 90% 30.26 in 5.0 mi South 6.9 mph - N/A   Clear
5:35 AM 30.4 °F 23.6 °F 27.9 °F 90% 30.26 in 7.0 mi South 6.9 mph - N/A   Clear
5:36 AM 30.4 °F 23.6 °F 27.9 °F 90% 30.26 in 7.0 mi South 6.9 mph - N/A   Clear
5:55 AM 30.6 °F 23.1 °F 27.9 °F 90% 30.26 in 7.0 mi South 8.1 mph - N/A   Clear
5:56 AM 30.6 °F 23.1 °F 27.9 °F 90% 30.26 in 7.0 mi South 8.1 mph - N/A   Clear
6:18 AM 30.9 °F 23.5 °F 27.7 °F 88% 30.26 in 7.0 mi South 8.1 mph - N/A   Clear
6:36 AM 31.1 °F 23.1 °F 27.5 °F 87% 30.26 in 10.0 mi SSE 9.2 mph - N/A   Clear
6:55 AM 30.9 °F 23.5 °F 27.7 °F 88% 30.25 in 7.0 mi SSE 8.1 mph - N/A   Clear
6:56 AM 30.9 °F 23.5 °F 27.9 °F 88% 30.25 in 7.0 mi SSE 8.1 mph - N/A   Clear
7:15 AM 30.9 °F 23.5 °F 27.5 °F 87% 30.24 in 7.0 mi South 8.1 mph - N/A   Clear
7:16 AM 30.9 °F 23.5 °F 27.5 °F 87% 30.24 in 7.0 mi South 8.1 mph - N/A   Clear
7:35 AM 31.6 °F 24.4 °F 27.9 °F 86% 30.24 in 10.0 mi SSE 8.1 mph - N/A   Clear
7:39 AM 31.1 °F 23.7 °F 27.5 °F 87% 30.24 in 7.0 mi SSE 8.1 mph - N/A   Clear
7:58 AM 31.5 °F 24.2 °F 28.0 °F 87% 30.23 in 10.0 mi South 8.1 mph - N/A   Clear
8:15 AM 32.0 °F 24.8 °F 28.8 °F 88% 30.23 in 5.0 mi South 8.1 mph - N/A   Clear
8:35 AM 32.5 °F 25.5 °F 29.3 °F 88% 30.23 in 7.0 mi South 8.1 mph - N/A   Clear
8:36 AM 32.7 °F 25.7 °F 29.3 °F 87% 30.23 in 7.0 mi South 8.1 mph - N/A   Clear
8:55 AM 34.7 °F 28.1 °F 30.7 °F 85% 30.23 in 10.0 mi South 8.1 mph - N/A   Clear
8:56 AM 34.7 °F 28.1 °F 30.7 °F 85% 30.23 in 10.0 mi South 8.1 mph - N/A   Clear
9:18 AM 36.5 °F 30.3 °F 31.5 °F 82% 30.21 in 5.0 mi SSE 8.1 mph - N/A   Haze
9:56 AM 40.1 °F 34.1 °F 32.9 °F 75% 30.21 in 7.0 mi South 9.2 mph - N/A   Clear
10:15 AM 42.3 °F 36.3 °F 33.1 °F 70% 30.21 in 7.0 mi South 10.4 mph - N/A   Clear
10:16 AM 42.3 °F 36.3 °F 33.3 °F 70% 30.21 in 10.0 mi South 10.4 mph - N/A   Clear
10:57 AM 47.3 °F - 33.8 °F 59% 30.19 in 7.0 mi South 10.4 mph - N/A   Clear
11:16 AM 50.4 °F - 34.5 °F 55% 30.19 in 7.0 mi South 11.5 mph - N/A   Clear
11:35 AM 51.1 °F - 33.4 °F 51% 30.18 in 7.0 mi South 11.5 mph - N/A   Clear
11:36 AM 51.3 °F - 33.4 °F 51% 30.18 in 7.0 mi South 11.5 mph - N/A   Clear
11:55 AM 52.3 °F - 32.7 °F 47% 30.18 in 10.0 mi SSW 9.2 mph - N/A   Clear
11:56 AM 52.3 °F - 32.7 °F 47% 30.18 in 10.0 mi SSW 9.2 mph - N/A   Clear
12:17 PM 53.1 °F - 32.4 °F 45% 30.16 in 7.0 mi SSW 10.4 mph - N/A   Clear
12:35 PM 54.9 °F - 33.6 °F 45% 30.15 in 7.0 mi South 11.5 mph - N/A   Clear
12:55 PM 55.8 °F - 33.3 °F 43% 30.14 in 10.0 mi South 11.5 mph - N/A   Clear
12:56 PM 55.9 °F - 33.4 °F 43% 30.14 in 7.0 mi SSW 12.7 mph - N/A   Clear
1:15 PM 56.5 °F - 33.3 °F 42% 30.13 in 7.0 mi SSW 11.5 mph 17.3 mph N/A   Clear
1:16 PM 56.5 °F - 33.4 °F 42% 30.13 in 7.0 mi SSW 12.7 mph - N/A   Clear
1:38 PM 57.0 °F - 33.1 °F 40% 30.11 in 10.0 mi South 15.0 mph - N/A   Clear
1:57 PM 57.6 °F - 34.0 °F 41% 30.10 in 10.0 mi South 11.5 mph 18.4 mph N/A   Clear
2:16 PM 57.7 °F - 33.1 °F 39% 30.09 in 10.0 mi South 13.8 mph - N/A   Clear
2:35 PM 58.3 °F - 33.3 °F 39% 30.08 in 10.0 mi SSW 9.2 mph 18.4 mph N/A   Clear
2:36 PM 58.3 °F - 33.6 °F 39% 30.08 in 10.0 mi South 9.2 mph 18.4 mph N/A   Clear
2:55 PM 59.0 °F - 34.5 °F 40% 30.07 in 7.0 mi South 9.2 mph - N/A   Clear
3:16 PM 59.4 °F - 34.5 °F 39% 30.06 in 10.0 mi South 10.4 mph - N/A   Clear
3:36 PM 59.9 °F - 32.5 °F 36% 30.05 in 10.0 mi SSW 12.7 mph 19.6 mph N/A   Clear
3:55 PM 60.3 °F - 32.4 °F 35% 30.04 in 5.0 mi SSW 10.4 mph - N/A   Haze
4:18 PM 59.9 °F - 32.4 °F 35% 30.05 in 10.0 mi SSW 11.5 mph - N/A   Clear
4:37 PM 59.4 °F - 32.7 °F 37% 30.04 in 7.0 mi SSW 9.2 mph - N/A   Clear
4:55 PM 58.6 °F - 32.4 °F 37% 30.03 in 7.0 mi SSW 10.4 mph 18.4 mph N/A   Clear
5:15 PM 58.1 °F - 32.9 °F 39% 30.03 in 10.0 mi SSW 10.4 mph - N/A   Clear
5:16 PM 58.1 °F - 32.9 °F 39% 30.03 in 10.0 mi SSW 9.2 mph - N/A   Clear
5:35 PM 56.8 °F - 33.1 °F 41% 30.03 in 10.0 mi SSW 8.1 mph - N/A   Clear
5:39 PM 56.3 °F - 33.3 °F 42% 30.03 in 7.0 mi SSW 9.2 mph - N/A   Clear
5:57 PM 54.9 °F - 33.8 °F 45% 30.03 in 7.0 mi SSW 9.2 mph - N/A   Clear
6:15 PM 52.0 °F - 34.2 °F 51% 30.02 in 7.0 mi South 8.1 mph - N/A   Clear
6:35 PM 50.2 °F - 34.2 °F 54% 30.02 in 7.0 mi South 5.8 mph - N/A   Clear
6:55 PM 48.0 °F - 34.2 °F 59% 30.02 in 7.0 mi SSE 8.1 mph - N/A   Clear
6:56 PM 48.0 °F - 34.2 °F 59% 30.02 in 7.0 mi SSE 8.1 mph - N/A   Clear
7:18 PM 45.7 °F 41.5 °F 34.0 °F 64% 30.02 in 7.0 mi South 8.1 mph - N/A   Clear
7:55 PM 45.0 °F 40.6 °F 34.2 °F 66% 30.02 in 10.0 mi SSE 8.1 mph - N/A   Clear
8:15 PM 44.1 °F 39.5 °F 34.0 °F 68% 30.01 in 7.0 mi SSE 8.1 mph - N/A   Clear
8:16 PM 44.1 °F 40.1 °F 34.0 °F 68% 30.01 in 7.0 mi SSE 6.9 mph - N/A   Clear
8:35 PM 44.2 °F 39.7 °F 34.2 °F 68% 30.01 in 10.0 mi SSE 8.1 mph - N/A   Clear
8:57 PM 44.8 °F 39.9 °F 34.2 °F 66% 30.01 in 7.0 mi SSE 9.2 mph - N/A   Clear
9:16 PM 44.6 °F 40.2 °F 34.2 °F 67% 30.00 in 7.0 mi SSE 8.1 mph - N/A   Clear
9:35 PM 45.3 °F 40.1 °F 34.3 °F 65% 30.00 in 7.0 mi SSE 10.4 mph - N/A   Clear
9:36 PM 45.5 °F 40.3 °F 34.3 °F 65% 30.00 in 7.0 mi SSE 10.4 mph - N/A   Clear
9:55 PM 45.1 °F 39.9 °F 34.2 °F 65% 29.99 in 7.0 mi SSE 10.4 mph - N/A   Clear
9:56 PM 45.0 °F 39.7 °F 34.2 °F 66% 29.99 in 10.0 mi SSE 10.4 mph - N/A   Clear
10:19 PM 44.6 °F 39.7 °F 33.8 °F 66% 29.98 in 7.0 mi SSE 9.2 mph - N/A   Clear
10:36 PM 44.1 °F 39.0 °F 33.8 °F 67% 29.98 in 7.0 mi SSE 9.2 mph - N/A   Clear
10:56 PM 43.7 °F 38.6 °F 33.6 °F 68% 29.98 in 7.0 mi SSE 9.2 mph - N/A   Clear
11:15 PM 43.2 °F 38.4 °F 33.3 °F 68% 29.97 in 7.0 mi South 8.1 mph - N/A   Clear
11:35 PM 43.2 °F 38.4 °F 33.1 °F 68% 29.97 in 7.0 mi South 8.1 mph - N/A   Clear
11:39 PM 43.3 °F 38.1 °F 32.9 °F 67% 29.97 in 7.0 mi South 9.2 mph - N/A   Clear
11:58 PM 44.1 °F 38.6 °F 32.7 °F 64% 29.95 in 7.0 mi South 10.4 mph - N/A   Clear